This is the latest recevied weather packets stored in our database for station/object N5ZKK. If no packets are shown the sender has not sent any weather packets the latest 10 day(s).
| Time | Temp. | Humidity | Pressure | Rain* | Wind** | Luminosity | Snow |
|---|---|---|---|---|---|---|---|
| 1777833925 | 27.22° C | 37% | 1023.9 hPa | 0 mm | - | - | - |
| 1777833335 | 25° C | 37% | 1024.2 hPa | 0 mm | - | - | - |
| 1777829132 | 23.89° C | 43% | 1025.4 hPa | 0 mm | - | - | - |
| 1777822520 | 21.67° C | 56% | 1026.3 hPa | 0 mm | - | - | - |
| 1777817719 | 18.89° C | 71% | 1026.2 hPa | 0 mm | - | - | - |
| 1777812919 | 9.44° C | 99% | 1025.5 hPa | 0 mm | - | - | - |
| 1777807540 | 6.11° C | 99% | 1025 hPa | 0 mm | - | - | - |
| 1777802141 | 6.11° C | 99% | 1024.6 hPa | 0 mm | - | - | - |
| 1777799729 | 6.67° C | 99% | 1024.8 hPa | 0 mm | - | - | - |
| 1777793130 | 7.78° C | 99% | 1025.1 hPa | 0 mm | - | - | - |
| 1777790721 | 8.33° C | 99% | 1025.5 hPa | 0 mm | - | - | - |
| 1777787752 | 8.89° C | 99% | 1025.3 hPa | 0 mm | - | - | - |
| 1777785317 | 9.44° C | 99% | 1025.2 hPa | 0 mm | - | - | - |
| 1777784127 | 10° C | 99% | 1025.2 hPa | 0 mm | - | - | - |
| 1777779327 | 11.67° C | 93% | 1024.6 hPa | 0 mm | - | - | - |
| 1777776340 | 12.78° C | 82% | 1024.1 hPa | 0 mm | - | - | - |
| 1777772137 | 17.78° C | 56% | 1023.1 hPa | 0 mm | - | - | - |
| 1777766719 | 23.33° C | 41% | 1022.7 hPa | 0 mm | - | - | - |
| 1777766115 | 23.89° C | 41% | 1022.7 hPa | 0 mm | - | - | - |
| 1777765524 | 23.33° C | 40% | 1022.7 hPa | 0 mm | - | - | - |
| 1777753532 | 22.78° C | 44% | 1024 hPa | 0 mm | - | - | - |
| 1777750545 | 23.89° C | 43% | 1024.3 hPa | 0 mm | - | - | - |
| 1777747518 | 22.22° C | 49% | 1024.8 hPa | 0 mm | - | - | - |
| 1777745745 | 22.22° C | 52% | 1025 hPa | 0 mm | - | - | - |
| 1777742121 | 21.67° C | 54% | 1025.6 hPa | 0 mm | - | - | - |
* Rain latest hour (hover to see other rain measurements)
** Current wind speed in m/s (hover to see current wind gust speed)